カタログに戻る

DMSP 5D-2 F13 DEB

運用中SSO
NORAD 42325·DEBRIS·🇺🇸 United States

打ち上げ Mar 24, 1995 から Vandenberg Space Force Base

Loading…

次のパス (今後24時間)

TLE

最新Source: Space-Track

元期: Sep 14, 2026, 14:27 UTC

1 42325U 95015JT  26257.60256014  .00004035  00000-0  11870-2 0  9993
2 42325  98.7173 307.0631 0010082 221.5414 138.5010 14.44244193565676

AllMySatでDMSP 5D-2 F13 DEBをリアルタイム追跡

Download on the App Store